Tracking 21516 objects as of 1-Oct-2020
HD Live streaming from Space Station
objects crossing your sky now

CZ-2D DEB

Track CZ-2D DEB now!
10-day predictions


NORAD ID: 45805
Int'l Code: 2020-034D
Perigee: 445.0 km
Apogee: 507.8 km
Inclination: 97.4 °
Period: 94.0 minutes
Semi major axis: 6847 km
RCS: Unknown
Launch date: May 31, 2020
Source: People's Republic of China (PRC)
Launch site: Jiuquan Satellite Launch Center, China (JSC)

Note: This is SATELLITE DEBRIS
aabbcc
Your satellite tracking list
Your tracking list is empty




NASA's NSSDC Master Catalog

Two Line Element Set (TLE):
1 45805U 20034D   20274.37604443  .00007996  00000-0  25150-3 0  9994
2 45805  97.4246  59.9710 0045877 230.6353 129.0821 15.32192470 15317
Source of the keplerian elements: AFSPC